Probability
26 10 6 0 0 0 0 0 0 0 0 0 0 0 0 0 0 0 0 26 71 81 87 94 97 97 100 100 100 100 100 100 100 100 100 100 100 97 97 97 97 97 97 94 94 90 87 90 87
6 10 0 0 0 0 0 0 0 0 0 0 0 3 13 13 19 19 29 52 77 81 84 94 100 100 100 100 100 100 100 100 100 100 100 100 100 100 94 97 97 97 97 97 97 94 94 97 90
3 6 0 0 0 0 0 0 0 0 0 0 0 3 13 13 16 13 35 68 77 84 87 94 100 100 100 100 100 100 100 100 100 100 100 100 100 100 100 100 97 97 97 97 94 94 90 97 97
3 0 0 0 0 0 0 0 0 0 6 3 3 10 10 19 16 32 61 81 81 84 90 97 100 100 100 100 100 100 100 100 100 100 100 100 100 100 100 100 100 97 97 100 94 94 94 94 90
3 0 0 0 0 0 0 0 3 0 3 3 6 13 10 23 35 55 74 81 77 87 94 100 100 100 100 100 100 100 100 100 100 100 100 100 100 100 100 100 97 97 97 100 94 94 94 94 87
0 0 0 0 0 0 0 3 3 3 3 3 6 6 10 32 48 61 74 74 77 90 94 100 100 100 100 100 100 100 100 100 100 100 100 100 100 100 100 94 94 97 94 90 94 87 87 87 87
0 0 0 0 0 0 0 3 3 6 6 3 6 6 13 29 35 52 61 71 84 90 94 97 97 100 100 100 100 100 100 100 100 100 100 97 97 94 100 94 90 87 87 84 81 81 84 84 77
0 0 0 0 0 3 3 3 3 3 10 6 6 6 10 23 29 42 45 65 81 90 94 94 94 97 100 100 100 100 100 100 100 100 100 94 90 87 94 97 90 77 81 84 77 74 74 77 77
0 0 0 0 0 3 3 3 3 3 6 10 10 10 13 35 35 45 42 61 74 87 87 87 87 94 94 100 100 100 97 97 94 84 97 77 48 52 68 84 81 74 68 65 68 74 77 81 71
0 0 0 0 0 3 3 3 3 6 6 10 13 19 32 39 32 26 26 32 55 74 74 68 71 81 81 87 77 68 74 68 61 55 52 32 23 29 52 81 81 68 77 65 71 81 61 23 29
0 0 0 0 0 3 3 3 3 0 3 10 10 29 32 35 26 23 16 10 19 26 65 55 61 52 58 61 58 58 48 48 52 48 26 19 19 19 16 23 26 23 32 23 29 26 19 10 6
0 0 0 0 0 3 3 3 3 3 0 10 13 26 32 35 23 19 16 13 16 26 45 42 39 39 39 39 48 52 39 42 42 39 23 13 13 10 10 13 10 10 6 3 6 3 3 0 3
0 0 0 0 3 3 3 3 3 3 3 10 13 29 32 32 29 19 16 16 16 19 23 32 35 32 35 23 35 42 39 35 32 26 19 10 13 10 6 10 6 6 6 3 3 3 0 3 3
0 0 0 0 3 6 6 6 3 10 6 6 23 23 32 32 35 29 19 16 13 19 16 26 29 23 13 13 19 23 16 19 23 19 16 10 6 6 0 3 6 6 6 6 6 3 3 3 3
0 0 0 0 3 6 3 6 6 10 10 6 19 23 32 35 39 32 26 19 19 16 10 16 16 13 6 6 10 13 16 13 13 13 10 10 3 0 0 0 3 3 3 3 0 0 0 0 0
0 0 0 0 3 3 3 3 13 10 13 13 13 19 23 23 26 32 32 26 23 16 19 19 32 10 13 6 6 13 10 10 13 10 10 10 6 3 0 0 3 3 3 3 0 0 0 0 0
0 0 0 0 0 0 3 3 16 16 16 16 16 23 23 23 23 26 29 29 26 19 19 19 16 13 13 10 6 16 10 10 6 6 10 6 6 3 0 0 0 0 3 0 0 0 0 0 0
0 0 0 0 0 0 3 3 19 19 16 16 19 23 26 23 23 23 32 35 39 26 19 19 23 16 13 10 10 13 6 3 3 3 6 6 3 3 0 0 0 0 0 0 0 0 0 0 0
0 0 0 0 0 3 3 6 19 13 19 19 19 19 19 19 29 32 42 45 48 39 32 26 26 19 19 19 13 13 3 6 3 3 6 6 6 3 0 0 0 0 0 0 0 0 0 0 0
0 0 0 0 0 0 0 6 19 23 23 19 26 26 23 23 39 42 45 52 52 35 35 39 29 23 23 16 10 3 3 3 3 6 3 3 3 3 3 0 0 0 0 0 0 0 0 0 0
0 0 0 0 0 0 0 3 10 23 23 35 32 32 32 42 42 45 42 52 55 48 39 39 35 29 19 10 6 3 3 3 3 3 3 3 0 0 0 0 0 0 0 0 0 0 0 0 0
0 0 0 0 0 0 0 0 0 13 19 32 35 39 48 52 45 42 45 45 55 55 45 42 39 29 19 13 10 10 3 6 3 3 3 3 6 0 0 0 0 0 0 0 0 0 0 0 0
0 0 0 0 0 0 0 0 0 6 13 23 32 35 55 55 55 52 48 39 55 58 42 35 29 26 19 16 10 6 10 3 3 6 6 6 6 3 3 6 0 0 0 0 0 0 0 0 0
0 0 0 0 0 0 0 0 0 3 10 23 39 45 52 52 52 48 48 48 52 55 39 35 29 23 23 16 13 13 13 6 6 6 6 6 6 6 10 10 6 6 3 0 0 0 0 0 0
0 0 0 0 0 0 0 0 0 0 6 19 42 45 55 52 52 55 55 52 45 58 52 35 29 29 26 19 23 16 10 10 6 6 6 6 6 6 6 10 13 10 6 3 0 0 0 0 6
0 0 0 0 0 0 0 0 3 6 6 19 32 45 65 52 55 52 55 48 55 58 52 48 32 26 26 23 26 19 13 13 10 10 10 10 10 10 6 6 6 10 10 6 0 0 0 3 3
0 0 0 0 0 0 0 0 0 10 19 19 45 48 61 58 52 48 48 52 52 55 52 39 32 29 29 32 29 23 16 16 10 10 10 10 10 10 3 6 3 3 6 6 6 3 3 3 3
0 0 0 0 0 0 0 0 0 10 16 29 48 58 52 52 52 55 52 55 52 42 45 39 48 35 35 32 32 29 26 16 16 10 10 10 10 10 6 6 6 6 6 3 3 3 0 6 0
0 0 0 0 0 0 0 0 0 3 16 23 42 52 45 52 55 58 55 58 48 52 58 52 45 39 39 39 29 26 19 16 13 16 16 13 6 6 3 3 6 3 3 3 0 3 6 3 6
0 0 0 0 0 0 0 0 3 6 19 23 29 42 52 48 52 55 55 45 52 58 58 45 42 45 42 35 26 26 19 16 16 19 16 16 6 3 6 6 6 6 3 6 6 6 6 6 6
Height
5903 5902 5902 5901 5900 5899 5896 5895 5894 5893 5893 5892 5891 5890 5890 5890 5891 5892 5890 5888 5888 5888 5887 5886 5886 5886 5886 5886 5886 5887 5887 5888 5888 5888 5889 5889 5890 5890 5890 5891 5891 5891 5892 5892 5892 5892 5892 5892 5893
5906 5906 5906 5904 5902 5900 5898 5897 5896 5896 5895 5893 5892 5892 5891 5891 5891 5891 5890 5889 5889 5889 5888 5887 5887 5887 5887 5887 5887 5887 5888 5888 5889 5889 5889 5890 5890 5890 5891 5891 5892 5892 5892 5892 5893 5893 5893 5893 5894
5909 5909 5909 5907 5904 5902 5901 5900 5899 5898 5897 5895 5895 5894 5893 5893 5892 5892 5891 5891 5890 5889 5889 5888 5887 5887 5887 5888 5888 5888 5889 5889 5889 5889 5890 5890 5891 5891 5891 5892 5892 5893 5893 5893 5894 5894 5894 5894 5895
5912 5912 5911 5910 5907 5905 5904 5902 5901 5900 5899 5898 5897 5897 5896 5895 5894 5893 5893 5892 5891 5890 5889 5889 5888 5888 5888 5888 5889 5889 5889 5890 5890 5890 5890 5891 5891 5891 5892 5892 5893 5893 5894 5894 5894 5895 5895 5895 5895
5915 5914 5913 5911 5910 5908 5906 5905 5904 5903 5902 5901 5900 5899 5898 5897 5896 5895 5894 5894 5893 5891 5890 5889 5889 5889 5889 5889 5889 5890 5890 5890 5890 5891 5891 5891 5892 5892 5892 5893 5893 5894 5894 5895 5895 5895 5896 5896 5896
5918 5916 5915 5914 5913 5911 5909 5908 5906 5906 5905 5904 5903 5902 5901 5900 5898 5897 5896 5895 5894 5892 5891 5890 5890 5890 5889 5889 5890 5890 5890 5891 5891 5891 5892 5892 5892 5893 5893 5894 5894 5895 5895 5895 5896 5896 5897 5897 5897
5920 5919 5917 5916 5915 5914 5913 5911 5909 5909 5908 5907 5906 5904 5903 5902 5900 5899 5897 5896 5895 5893 5892 5891 5891 5891 5890 5890 5890 5891 5891 5891 5892 5892 5892 5893 5893 5893 5894 5894 5895 5895 5896 5896 5896 5897 5897 5898 5898
5922 5922 5920 5919 5918 5917 5915 5914 5913 5912 5911 5910 5908 5907 5905 5904 5902 5901 5899 5898 5896 5895 5894 5893 5892 5892 5891 5891 5891 5891 5891 5892 5892 5892 5893 5893 5894 5894 5895 5895 5895 5896 5896 5897 5897 5898 5898 5898 5898
5924 5924 5922 5921 5921 5920 5918 5917 5917 5916 5914 5913 5911 5910 5908 5906 5905 5903 5901 5899 5898 5896 5895 5894 5893 5893 5892 5892 5892 5892 5892 5892 5892 5893 5893 5894 5894 5895 5895 5896 5896 5897 5897 5897 5898 5898 5898 5899 5899
5926 5926 5925 5924 5924 5923 5922 5920 5920 5919 5917 5916 5914 5912 5911 5909 5907 5905 5903 5901 5899 5898 5896 5895 5895 5894 5893 5893 5892 5892 5892 5892 5893 5893 5894 5894 5895 5895 5896 5896 5897 5897 5898 5898 5898 5899 5899 5899 5900
5928 5927 5927 5926 5926 5926 5925 5924 5923 5921 5920 5919 5917 5915 5914 5912 5910 5908 5906 5903 5901 5899 5898 5897 5896 5895 5894 5894 5893 5893 5893 5893 5893 5894 5894 5895 5895 5896 5896 5897 5897 5898 5898 5899 5899 5899 5899 5900 5900
5930 5929 5929 5929 5928 5928 5927 5927 5926 5924 5924 5922 5920 5918 5917 5915 5913 5910 5908 5905 5903 5901 5899 5898 5897 5896 5895 5894 5894 5893 5893 5893 5893 5894 5894 5895 5895 5896 5896 5897 5897 5898 5898 5899 5899 5899 5900 5900 5900
5931 5931 5931 5931 5930 5930 5930 5929 5929 5927 5926 5925 5923 5921 5919 5917 5915 5912 5909 5907 5905 5903 5901 5899 5898 5897 5896 5895 5894 5894 5893 5893 5893 5893 5894 5895 5895 5896 5896 5897 5898 5898 5899 5899 5899 5900 5900 5900 5900
5933 5933 5933 5933 5932 5932 5932 5932 5931 5930 5929 5928 5926 5924 5922 5919 5917 5914 5911 5909 5907 5905 5903 5901 5899 5898 5896 5895 5895 5894 5894 5894 5893 5893 5894 5894 5895 5896 5896 5897 5897 5898 5898 5899 5899 5899 5900 5900 5900
5934 5935 5935 5934 5934 5934 5934 5934 5934 5933 5932 5930 5928 5926 5924 5921 5919 5916 5914 5911 5909 5906 5904 5902 5901 5899 5897 5896 5895 5895 5894 5894 5894 5894 5894 5894 5895 5896 5896 5896 5897 5897 5898 5898 5899 5899 5899 5900 5900
5935 5935 5936 5936 5936 5936 5937 5936 5936 5935 5934 5932 5930 5928 5926 5923 5920 5918 5915 5913 5911 5908 5906 5904 5902 5900 5899 5897 5896 5895 5895 5894 5894 5894 5894 5895 5895 5895 5896 5896 5897 5897 5897 5898 5898 5899 5899 5899 5900
5935 5936 5936 5937 5937 5937 5937 5937 5937 5936 5935 5934 5932 5930 5927 5925 5922 5920 5917 5915 5912 5910 5907 5905 5903 5901 5900 5898 5897 5896 5895 5895 5895 5894 5894 5894 5895 5895 5895 5896 5896 5897 5897 5897 5898 5898 5898 5899 5899
5935 5936 5936 5937 5937 5938 5938 5938 5938 5937 5936 5935 5933 5931 5928 5926 5924 5921 5919 5916 5914 5911 5909 5907 5905 5903 5901 5899 5898 5896 5896 5895 5895 5895 5894 5894 5895 5895 5895 5895 5896 5896 5896 5897 5897 5897 5897 5898 5898
5935 5936 5937 5938 5938 5938 5938 5939 5939 5938 5937 5936 5934 5932 5930 5927 5925 5923 5920 5918 5915 5913 5910 5908 5906 5904 5902 5901 5899 5898 5897 5896 5896 5895 5894 5894 5894 5894 5894 5894 5895 5895 5896 5896 5896 5896 5897 5897 5897
5935 5936 5937 5938 5938 5938 5939 5939 5939 5939 5938 5937 5935 5932 5930 5928 5926 5924 5921 5919 5916 5914 5912 5909 5907 5904 5903 5901 5899 5899 5898 5897 5896 5895 5895 5894 5894 5893 5893 5894 5894 5894 5895 5895 5895 5895 5895 5895 5896
5934 5936 5937 5938 5938 5938 5939 5940 5940 5939 5938 5937 5935 5933 5931 5929 5927 5924 5922 5919 5917 5914 5912 5910 5908 5906 5904 5902 5900 5899 5898 5897 5896 5895 5894 5894 5893 5893 5893 5893 5893 5893 5893 5894 5894 5894 5894 5894 5894
5933 5935 5936 5937 5938 5938 5939 5940 5940 5939 5938 5937 5935 5933 5931 5929 5926 5924 5922 5920 5917 5915 5913 5910 5908 5906 5904 5903 5901 5900 5898 5897 5896 5895 5894 5893 5892 5892 5892 5892 5892 5892 5892 5892 5892 5892 5892 5892 5892
5932 5933 5935 5936 5937 5938 5938 5939 5940 5938 5938 5937 5935 5933 5931 5929 5927 5924 5922 5919 5917 5915 5913 5911 5909 5907 5905 5903 5901 5900 5898 5897 5896 5895 5893 5893 5892 5891 5891 5891 5891 5891 5891 5891 5891 5891 5891 5891 5891
5929 5931 5933 5934 5935 5937 5937 5938 5938 5938 5937 5937 5935 5932 5931 5929 5927 5924 5922 5920 5917 5915 5913 5911 5909 5907 5905 5903 5901 5899 5898 5897 5895 5894 5893 5892 5891 5891 5890 5889 5889 5889 5889 5889 5889 5889 5889 5889 5889
5927 5930 5931 5932 5933 5935 5935 5936 5937 5937 5936 5936 5934 5933 5931 5928 5926 5924 5922 5920 5918 5916 5914 5911 5909 5907 5905 5903 5901 5899 5898 5897 5895 5894 5893 5891 5890 5890 5889 5888 5888 5888 5887 5887 5887 5887 5887 5886 5886
5924 5927 5930 5931 5932 5933 5933 5934 5936 5936 5935 5934 5934 5932 5930 5928 5926 5924 5922 5920 5918 5916 5914 5911 5909 5907 5905 5903 5901 5899 5898 5896 5895 5893 5892 5890 5889 5888 5887 5887 5886 5886 5886 5885 5885 5885 5884 5884 5884
5921 5923 5926 5928 5929 5930 5931 5933 5934 5934 5934 5933 5933 5931 5930 5928 5926 5924 5922 5920 5918 5916 5914 5911 5909 5907 5905 5903 5901 5899 5897 5896 5894 5893 5891 5890 5888 5887 5886 5885 5885 5884 5884 5884 5883 5882 5882 5881 5880
5918 5920 5922 5924 5926 5928 5929 5930 5932 5932 5932 5932 5931 5930 5929 5927 5926 5924 5922 5920 5918 5915 5913 5911 5909 5907 5905 5902 5900 5899 5897 5896 5894 5893 5891 5889 5887 5886 5885 5884 5883 5882 5882 5881 5881 5880 5879 5878 5877
5914 5917 5919 5921 5923 5925 5926 5930 5930 5930 5930 5930 5929 5929 5927 5926 5925 5923 5921 5919 5917 5914 5912 5910 5908 5906 5905 5903 5901 5899 5897 5895 5894 5892 5890 5888 5886 5885 5883 5882 5881 5880 5879 5879 5878 5877 5876 5875 5874
5909 5913 5915 5918 5920 5921 5923 5928 5927 5927 5927 5927 5927 5927 5926 5925 5923 5922 5920 5918 5916 5913 5912 5910 5908 5906 5904 5903 5901 5899 5897 5895 5893 5891 5889 5887 5885 5883 5882 5880 5879 5878 5877 5876 5875 5874 5873 5872 5871
Wind_Speed
20 20 20 21 21 20 21 22 21 19 17 17 16 16 15 13 11 11 10 9 8 7 6 6 7 7 7 7 8 8 8 8 8 8 7 7 6 6 5 5 4 4 4 4 4 4 4 4 5
21 20 20 21 22 22 23 24 22 19 18 18 17 16 15 13 12 11 10 9 7 6 6 7 7 7 7 7 7 7 7 7 7 7 7 7 6 6 5 5 5 4 4 4 3 3 4 4 4
20 20 21 21 22 24 24 24 23 21 20 19 18 17 15 13 11 11 11 9 7 6 7 7 7 7 7 7 7 7 7 7 7 7 7 6 6 6 5 5 5 5 4 4 3 3 3 3 3
19 20 20 21 22 24 25 25 24 22 21 20 19 17 15 13 12 12 11 9 8 7 7 8 8 7 7 7 6 6 6 6 6 6 6 7 6 6 6 5 5 5 4 4 4 4 4 4 3
19 20 21 21 22 24 26 25 25 23 20 20 19 18 16 14 13 13 12 10 9 9 8 8 8 8 7 6 6 6 6 5 5 6 6 6 6 6 5 5 5 4 4 4 4 4 4 4 4
18 20 21 22 22 23 25 25 25 23 21 20 20 18 16 15 14 13 12 11 10 10 10 9 9 8 7 6 6 5 5 4 4 5 5 6 6 6 5 5 5 5 4 4 4 4 5 4 4
18 19 20 21 22 23 25 25 25 23 21 21 20 19 17 15 14 14 13 12 11 11 11 10 9 8 7 6 5 5 4 4 4 4 4 5 5 5 5 4 5 4 4 4 4 4 4 4 4
16 18 19 21 21 23 24 25 24 22 21 21 21 21 19 17 15 14 13 13 12 12 11 10 9 8 7 6 5 5 4 4 3 3 3 4 4 4 4 4 4 4 4 4 4 4 4 4 4
15 17 19 20 21 22 24 25 23 22 21 21 22 21 20 18 16 15 14 14 13 12 11 11 9 8 7 7 6 5 4 4 3 3 3 4 4 4 4 4 4 4 4 4 3 3 3 3 3
14 16 18 19 21 22 23 24 24 23 22 22 22 22 20 19 17 16 16 15 14 13 12 11 9 8 8 7 6 5 4 4 3 3 3 3 3 4 4 4 3 3 3 3 3 3 2 2 3
13 15 17 18 20 21 22 23 23 23 23 22 22 22 21 20 18 17 17 16 15 14 12 11 9 8 7 6 6 5 4 3 3 2 2 2 2 2 3 3 2 2 2 2 2 2 2 2 2
11 14 15 17 19 20 21 22 23 23 22 22 22 21 21 20 19 19 18 17 16 15 13 12 11 9 7 6 6 5 4 3 2 1 1 1 1 1 2 2 2 2 2 2 2 1 1 1 1
10 12 14 15 17 20 20 21 21 22 21 21 21 21 21 20 20 20 19 18 17 16 15 13 11 10 7 6 5 5 4 3 2 1 1 1 1 1 1 1 1 2 1 1 1 1 0 1 1
9 11 13 15 16 18 19 20 20 20 20 20 21 21 21 20 20 19 19 18 17 16 15 14 12 11 8 7 5 5 5 4 2 1 1 1 2 1 1 1 2 2 1 1 1 1 1 1 1
8 10 12 14 15 16 17 18 19 19 19 19 20 21 21 20 20 19 19 18 18 17 16 15 14 12 10 8 7 6 5 5 4 1 1 2 2 2 1 2 2 2 2 2 1 1 1 1 1
7 8 10 12 13 14 14 15 16 16 17 18 19 20 21 20 20 19 19 19 18 18 16 15 14 13 12 10 8 7 6 5 5 3 1 1 2 2 2 2 2 3 3 3 2 2 1 1 2
7 6 7 9 10 11 11 12 13 14 15 16 17 18 19 19 19 19 19 19 18 17 16 15 14 13 12 11 9 7 7 5 4 3 1 0 1 2 3 3 3 3 3 4 3 3 3 3 2
7 6 5 5 6 8 9 10 11 12 13 14 16 17 17 18 18 18 18 18 18 17 16 15 14 13 12 11 11 9 7 6 4 3 2 1 1 2 3 4 4 4 4 4 4 4 4 4 4
7 6 4 2 2 3 5 7 8 10 11 13 14 15 16 17 17 17 17 18 17 17 16 16 14 13 12 11 10 10 9 7 5 4 3 2 2 2 3 3 4 4 4 4 4 5 5 5 5
9 7 5 3 1 2 3 5 6 8 9 10 12 13 14 15 15 16 16 16 17 16 16 16 15 14 12 10 9 9 9 7 7 5 4 3 2 2 3 4 4 4 4 5 5 5 6 6 6
11 9 6 5 4 3 3 3 5 7 8 9 11 12 13 14 14 14 14 15 16 15 15 15 15 14 13 11 10 9 8 7 6 5 5 4 3 3 3 4 4 5 5 5 5 6 6 7 7
14 11 9 7 7 6 5 4 4 6 7 8 10 11 12 13 13 13 14 14 15 15 14 15 14 13 12 11 10 9 8 7 6 5 5 5 4 4 4 4 5 5 5 6 6 6 7 7 8
16 14 12 11 10 9 7 7 5 6 7 7 9 11 11 14 13 13 14 14 14 14 14 14 13 13 12 12 10 9 8 8 7 6 6 5 4 3 4 4 4 5 6 6 6 6 7 8 9
18 16 14 14 12 11 9 8 7 6 7 7 9 11 12 14 12 12 13 14 14 13 13 13 13 13 12 11 11 10 9 8 7 7 6 5 4 4 5 4 5 5 6 6 7 7 8 9 9
20 17 16 15 14 13 11 10 7 7 6 7 9 11 13 13 12 11 13 13 13 13 13 12 12 12 12 12 11 10 9 8 8 7 7 6 5 5 5 5 6 6 7 7 8 8 9 10 11
21 19 18 17 15 14 14 12 9 8 7 7 9 11 11 12 11 11 12 12 13 12 13 13 12 12 12 11 11 10 10 9 8 8 8 8 7 6 6 7 7 8 8 8 9 10 11 12 12
23 22 20 18 17 17 16 13 11 8 7 7 9 10 10 12 12 12 12 12 13 13 12 13 13 12 12 11 11 10 10 9 8 8 9 9 9 8 7 7 7 8 8 9 10 11 12 13 13
24 23 21 20 19 18 17 15 12 10 8 9 9 9 10 12 12 12 12 12 12 12 14 13 13 12 11 11 11 10 10 10 10 9 9 10 9 8 8 8 8 8 9 10 11 12 12 13 14
25 24 22 21 21 19 18 15 13 12 11 9 9 9 10 11 12 12 13 13 13 13 14 13 12 12 12 12 12 12 11 11 11 11 11 11 10 10 9 9 9 10 11 11 12 13 13 14 15
26 24 23 22 21 20 18 15 14 13 12 10 10 10 11 12 12 12 13 13 14 14 14 13 12 13 13 13 13 12 12 12 12 12 12 12 12 11 11 10 10 11 12 13 13 14 15 15 16
Wind_Direction
70 69 67 66 63 63 63 60 56 54 54 55 54 55 56 55 54 57 56 56 55 58 67 74 75 77 77 75 73 71 68 65 62 59 58 60 63 66 70 75 77 80 88 88 83 85 87 94 103
71 69 67 67 67 63 62 60 55 52 51 50 48 48 49 51 53 55 54 54 52 56 66 74 76 78 77 75 73 71 67 63 60 58 58 60 62 64 70 71 73 80 85 88 85 85 87 93 96
70 68 68 67 67 64 61 58 55 52 50 49 48 46 44 47 52 53 53 52 54 60 67 72 74 76 75 73 71 70 68 63 60 59 57 57 57 58 63 70 74 79 81 82 83 80 86 91 90
73 70 68 66 65 64 61 58 54 51 50 51 50 48 47 48 51 53 52 50 51 57 65 70 70 70 71 72 70 68 67 65 61 61 60 58 57 60 61 68 73 78 80 80 80 79 88 92 91
74 72 68 65 64 62 59 56 53 49 47 50 52 50 48 48 50 51 51 51 51 56 65 68 67 65 65 68 71 70 66 64 63 62 61 58 58 58 61 64 71 78 78 76 76 80 89 93 94
75 73 69 64 61 59 56 54 52 47 45 48 51 50 48 46 48 51 51 52 53 57 62 67 67 65 65 69 70 67 63 62 62 61 55 56 58 60 66 68 71 77 77 77 82 84 86 92 94
75 73 70 65 60 57 54 53 51 47 46 47 49 50 49 46 46 49 49 50 51 55 60 62 62 63 62 65 67 64 61 64 68 67 60 57 56 62 65 69 69 75 74 77 84 87 90 92 89
74 71 69 65 60 57 55 52 50 49 47 46 46 47 46 43 43 46 48 49 50 52 55 56 58 58 57 58 63 66 64 69 78 77 68 60 58 63 67 73 69 73 73 78 88 90 87 87 88
76 71 71 67 61 58 56 53 50 49 49 46 44 44 43 42 42 44 46 47 47 47 50 51 49 50 53 56 60 65 66 71 77 84 81 69 63 64 73 76 72 73 75 78 84 88 87 85 85
78 73 73 69 63 58 56 54 51 50 48 45 43 42 41 40 40 41 41 43 43 43 44 44 43 47 51 53 58 62 63 72 77 85 84 73 69 70 80 81 74 77 80 81 83 84 87 80 78
83 78 75 69 66 61 57 53 51 51 47 43 42 41 39 38 38 38 38 39 40 41 41 42 43 44 48 51 58 59 60 74 82 86 84 82 81 79 80 88 76 85 87 87 85 83 89 69 64
87 84 81 74 70 63 57 53 50 50 47 43 40 39 36 34 35 36 37 38 39 39 39 40 41 42 43 47 50 57 59 61 74 92 109 96 97 95 87 104 91 96 103 105 100 87 79 55 33
89 85 85 80 72 64 58 52 49 47 45 42 38 36 33 31 32 33 34 36 37 37 38 39 38 37 35 36 43 47 45 39 58 94 126 137 137 132 154 147 136 130 133 152 160 167 174 35 18
94 89 89 83 73 66 59 52 47 44 42 41 38 35 32 31 30 31 33 34 34 35 36 35 33 32 32 30 34 46 43 31 25 36 126 134 163 179 177 179 183 177 188 205 223 204 210 257 312
110 98 95 87 76 68 61 53 45 41 40 39 36 33 30 30 30 30 31 32 32 33 33 31 29 29 29 31 37 47 46 42 37 54 143 150 168 183 188 191 206 216 232 240 250 202 211 229 246
136 115 100 90 80 69 61 52 42 36 34 34 31 28 27 27 27 28 28 29 30 30 30 29 28 29 28 29 32 37 42 38 35 46 110 161 190 206 202 199 219 231 242 241 233 222 210 224 244
161 136 113 95 81 71 60 52 39 30 25 28 27 24 24 24 25 24 25 25 26 27 28 26 23 25 23 25 26 27 29 32 27 27 46 107 224 216 219 219 229 239 245 243 237 233 235 238 249
180 159 135 106 82 72 63 51 39 28 23 22 24 22 21 23 23 22 22 22 23 24 25 23 19 17 20 25 27 28 28 24 21 11 352 342 288 238 226 226 240 245 247 252 249 244 249 248 254
192 177 168 140 78 64 59 49 36 26 21 18 17 17 18 18 19 19 19 19 20 21 23 21 18 14 17 24 30 30 31 31 30 24 12 333 290 265 243 242 247 247 252 254 251 248 252 253 259
208 206 207 216 262 1 26 24 22 20 20 15 11 11 12 12 12 14 14 16 18 19 20 19 17 18 17 17 24 22 22 28 27 21 9 360 352 302 259 251 249 249 250 247 247 251 255 258 263
218 223 227 246 270 306 340 3 6 6 14 13 9 7 6 7 6 8 11 13 15 16 16 15 17 18 18 16 20 19 17 18 17 16 7 352 330 322 290 263 258 255 251 246 248 255 261 263 265
225 231 233 245 265 281 304 326 338 348 356 360 359 360 359 0 0 5 9 11 12 11 12 13 14 15 15 15 15 14 11 10 11 9 1 352 330 307 296 274 266 263 258 256 258 260 263 264 266
228 234 238 244 256 270 284 297 322 329 338 342 350 353 354 358 356 359 2 6 8 8 8 10 11 13 12 12 12 12 6 3 4 360 358 356 348 318 296 281 267 265 262 263 262 265 268 267 269
229 235 242 248 253 261 271 285 309 309 321 332 345 350 350 351 352 356 357 1 5 6 5 5 7 8 9 11 10 8 3 1 357 351 350 347 334 318 299 286 278 269 264 264 266 272 274 274 275
231 236 243 246 250 258 266 278 300 308 315 331 341 346 348 347 347 350 350 358 360 359 358 359 4 4 5 7 6 6 4 360 355 348 343 335 322 316 303 287 283 277 273 270 272 273 276 276 275
235 238 243 247 249 256 265 272 287 297 311 326 338 344 349 351 352 353 352 355 355 353 354 354 356 1 2 3 3 3 360 354 350 345 340 334 327 319 301 296 285 281 280 279 277 278 278 276 275
233 237 241 245 248 254 262 270 277 288 300 314 328 340 347 353 353 354 357 356 353 352 351 353 356 355 356 358 360 359 355 352 347 343 341 339 332 322 310 302 293 290 287 285 285 287 285 280 276
230 235 239 242 247 252 258 265 273 279 290 307 322 332 337 344 349 350 351 350 350 354 350 347 350 354 355 354 354 353 350 350 349 346 343 341 338 329 315 303 295 290 287 285 286 288 286 286 282
230 234 238 242 246 250 255 262 269 272 278 294 309 317 329 337 340 341 347 347 347 351 352 349 350 353 354 354 353 352 348 347 346 343 339 337 333 329 319 310 301 296 293 290 287 291 292 289 287
230 234 238 241 245 249 254 258 262 266 272 283 299 312 318 323 328 336 342 345 346 347 347 349 347 349 348 348 348 347 344 341 340 337 333 331 329 326 321 312 305 302 298 295 292 292 291 288 287